RISULTATI COMPETITIVA – TITAN XRACE CATANIA PLAYA 2018
  • Main page
  • RISULTATI COMPETITIVA – TITAN XRACE CATANIA PLAYA 2018

RISULTATI COMPETITIVA - TITAN XRACE PLAYA CATANIA 2018

Donne

Pos BIB Cognome Nome Club Tempo gara Bracciali
1 79 IACONO MARIANGELA CSF14MODICA 00:37:31 1
2 74 GRAZIANO VALENTINA OFFITCINA 00:39:05 1
3 88 TUGUI ANDREEA ADELINA   00:39:15 1
4 73 GAROFALO CLAUDIA CSF14MODICA 00:40:49 1
5 77 FRANZE’ GIUSEPPA OFFITCINA 00:50:21 1
6 89 SEGUENZIA ROSAMARIA   00:50:45 1
7 72 GIUFFRIDA LETIZIA OFFITCINA 00:51:19 1
8 84 CAMPO DALILA SIRACUSA SPARTAN CREW 00:53:39 1
9 90 RAGUSA LUANA   01:08:06 1
10 92 ASSENZA ROSY CSF14MODICA 00:50:05 0
11 81 SCOTTINO SALVINA CSF14MODICA 00:53:34 0
12 86 GENOVESE ROBERTA SIRACUSA SPARTAN CREW 00:53:43 0
13 82 LA MAGNA GABRIELLA OFFITCINA 00:56:51 0
14 76 SICHERA STEFANIA EXPLOSIVE FORCE ASD IN FORMA 01:01:21 0
DNF 78 GIUFFRIDA SIMONA ROSA M.M.AUGUSTA 00:24:48 DNF

Uomini

Pos BIB Cognome Nome Club Tempo gara Bracciali
1 24 GIUNTA VINCENZO CSF14MODICA 00:30:39 3
2 10 SCUDERI DAVIDE   00:32:14 3
3 40 ALECCI SEBASTIANO OFFITCINA 00:35:45 3
4 13 PENNISI MARCO OFFITCINA 00:36:39 3
5 51 BOSCARINO DAMIANO SIRACUSA SPARTAN CREW 00:49:30 3
6 4 TROVATO GIOVANNI CSF14MODICA 00:29:23 2
7 1 CERRUTO IGNAZIO CSF14MODICA 00:31:16 2
8 2 CAVALLO ROSSANO CSF14MODICA 00:33:56 2
9 59 MIGLIORE FRANCESCO CSF14MODICA 00:35:20 2
10 41 D’AQUINO RICHARD OFFITCINA 00:36:54 2
11 36 FEDE FRANCESCO CSF14MODICA 00:37:42 2
12 47 VINCI FRANCESCO DOMENICO   00:38:12 2
13 48 CIANCIO ANDREA OFFITCINA 00:40:53 2
14 26 MODICA GIOVANNI CSF14MODICA 00:41:27 2
15 23 PROFETTO NICOLò CSF14MODICA 00:44:56 2
16 68 STANCAMPIANO GIUSEPPE   00:45:47 2
17 54 PENNISI DARIO SIRACUSA SPARTAN CREW 00:48:19 2
18 5 GRAZIANO ALESSIO OFFITCINA 00:49:09 2
19 50 SIINO JACOPO SIRACUSA SPARTAN CREW 00:59:24 2
21 46 BUSCEMA ENRICO   00:31:14 1
22 9 CANNATA ANTONINO M.M.AUGUSTA 00:37:32 1
23 33 SAMMITO SIMONE CSF14MODICA 00:37:47 1
24 60 RIGINELLA TARCISIO M.M.AUGUSTA 00:37:55 1
25 16 RISINA SANTI DANIELE   00:38:07 1
26 28 RUBULOTTA GIUSEPPE ALESSANDRO OFFITCINA 00:41:24 1
27 11 LOMBARDO ROBERTO M.M.AUGUSTA 00:41:43 1
28 63 CARPINTERI NUNZIO   00:41:54 1
29 17 MAGGIO MASSIMILIANO TOMMASO   00:42:56 1
30 30 LUCIFORA FRANCESCO CSF14MODICA 00:43:24 1
31 64 CONTEDUCA GIUSEPPE ANTONIO   00:44:23 1
32 44 DI CARLO ALESSANDRO   00:44:41 1
33 65 LA GIOIA DANIELE SIRACUSA SPARTAN CREW 00:44:47 1
34 43 NOTO SEBASTIANO   00:45:56 1
35 18 PATENA FABIO   00:46:38 1
36 14 D’ARRIGO ENRICO BIAGIO CARLO OFFITCINA 00:47:01 1
37 49 ANFUSO ANDREA OFFITCINA 00:47:11 1
38 25 FLORIDIA PIERO CSF14MODICA 00:47:21 1
39 6 MIRAGLIA FELICE M.M.AUGUSTA 00:47:37 1
40 19 MANUNZA LIVIO   00:48:19 1
41 66 ROCCASALVO GUGLIELMO CSF14MODICA 00:49:17 1
42 29 LO FURNO DAVIDE OFFITCINA 00:49:19 1
43 52 MAZZONE GABRIELE SIRACUSA SPARTAN CREW 00:49:54 1
44 20 GULIZIA GIAN MARCO   00:50:13 1
45 42 NICOLOSI GIANFRANCO OFFITCINA 00:50:53 1
46 61 MAIOLINO MASSIMO MAGMA 00:38:36 0
47 32 CANNIZZARO MICHELE CSF14MODICA 00:41:48 0
48 12 CARUSO CORRADO M.M.AUGUSTA 00:43:07 0
49 62 RUIZ SIMONE OFFITCINA 00:43:12 0
50 34 ALECCI CARMELO CSF14MODICA 00:43:34 0
51 27 MANICOTTO GIUSEPPE OFFITCINA 00:44:01 0
52 35 MUGNIECO GIOVANNI CSF14MODICA 00:44:17 0
53 58 SPADARO GIOVANNI CSF14MODICA 00:44:44 0
54 39 GRECO MASSIMILIANO OFFITCINA 00:44:47 0
55 15 DI STAZIO VINCENZO   00:46:32 0
56 56 SALINARO LUIGI   00:46:41 0
57 38 BARBAGIOVANNI BUGIACCA CARMELO EXPLOSIVE FORCE ASD IN FORMA 00:48:36 0
58 7 PALERMO IDONE DANIELE M.M.AUGUSTA 00:51:31 0
DNF 37 DI MAURO MASSIMILIANO EXPLOSIVE FORCE ASD IN FORMA 01:32:14 DNF
DSQ 31 SUSINO SALVATORE CSF14MODICA 00:20:37 1